#timestamp,LO_Frequency,Hit,StdDev 
1622782815.3,286047004.3,N
1622782835.1,286047004.2,N
1622782855.8,286047004.0,N
1622782875.7,286047001.9,N
1622782895.5,286047001.9,N
1622782915.4,286047004.4,N
1622782935.2,286047004.0,N
1622782955.0,286047001.8,N
1622782955.9,286047001.8,N
1622782975.8,286047002.7,N
1622782995.6,286047001.3,N
1622783015.5,286047004.3,N
1622783035.3,286047002.7,N
1622783055.1,286046998.2,N
1622783075.9,286046999.3,N
1622783095.7,286046999.0,N
1622783115.5,286046996.6,N
1622783135.4,286046999.2,N
1622783155.2,286046997.5,N
1622783175.1,286046997.4,N
1622783176.0,286046997.4,N
1622783195.8,286046998.0,N
1622783215.6,286046996.9,N
1622783235.5,286046994.9,N
1622783255.3,286046997.3,N
1622783275.2,286046997.9,N
1622783295.9,286046999.5,N
1622783315.7,286046999.0,N
1622783335.6,286047001.1,N
1622783355.4,286047000.6,N
1622783375.2,286047000.6,N
1622783395.1,286046999.0,N
1622783396.0,286046999.0,N
1622783415.8,286046996.5,N
1622783435.7,286046998.4,N
1622783455.5,286046999.3,N
1622783475.3,286046999.5,N
1622783495.2,286046995.4,N
1622783515.9,286046999.6,N
1622783535.7,286046999.1,N
1622783555.6,286046998.9,N
1622783575.4,286046997.1,N
1622783595.3,286046994.9,Y
1622783615.1,286047000.8,P
1622783616.0,286047000.8,N
1622783635.8,286047002.3,N
1622783655.7,286047001.3,N
1622783675.5,286046999.0,N
1622783695.3,286046998.5,N
1622783715.2,286046998.2,N
1622783735.0,286047000.7,N
1622783735.9,286047000.7,N
1622783755.8,286047000.0,N
1622783775.6,286047002.1,N
1622783795.4,286047003.8,N
1622783815.3,286047002.9,N
1622783835.1,286047003.8,N
1622783855.9,286047003.9,N
1622783875.7,286047001.4,N
1622783895.5,286047000.1,N
1622783915.4,286047002.2,N
1622783935.2,286047002.6,N
1622783955.0,286047003.8,N
1622783955.9,286047003.8,N
1622783975.8,286047001.7,N
1622783995.6,286047002.1,N
1622784015.5,286047000.0,N
1622784035.3,286047002.1,N
1622784055.1,286047001.4,N
1622784075.9,286047005.9,Y
1622784095.7,286047003.9,P
1622784115.5,286046999.8,N
1622784135.4,286046999.7,N
1622784155.2,286047002.5,N
1622784175.1,286046999.9,N
1622784176.0,286046999.9,N
1622784195.8,286047000.4,N
1622784215.6,286047000.1,N
1622784235.5,286047000.5,N
1622784255.3,286046999.9,N
1622784275.1,286046998.3,N
1622784295.9,286047001.1,N
1622784315.7,286047000.2,N
1622784335.6,286047000.7,N
1622784355.4,286046998.4,N
1622784375.2,286046998.6,N
1622784395.1,286046998.6,N
1622784396.0,286046998.6,N
1622784415.8,286047001.2,N
1622784435.6,286047000.7,N
1622784455.5,286047000.0,N
1622784475.3,286047000.8,N
1622784495.2,286047001.2,N
1622784515.9,286047000.2,N
1622784535.7,286047000.3,N
1622784555.6,286046999.7,N
1622784575.4,286047001.0,N
1622784595.3,286046996.5,N
1622784615.1,286046997.2,N
1622784616.0,286046997.2,N
1622784635.8,286046997.8,N
1622784655.7,286046995.0,Y
1622784675.5,286046997.6,P
1622784695.4,286046996.8,P
1622784715.2,286046996.9,N
1622784735.0,286046998.8,N
1622784735.9,286046998.8,N
1622784755.8,286047000.7,N
1622784775.6,286046998.6,N
1622784795.4,286047001.1,N
1622784815.3,286046998.3,N
1622784865.1,286046998.2,E
1622784875.1,286047000.9,N
1622784876.0,286047000.9,P
1622784895.8,286046998.2,P
1622784915.6,286047000.7,N
1622784935.5,286047000.5,N
1622784955.3,286046999.9,N
1622784975.2,286046999.9,N
1622784995.9,286047002.8,Y
1622785015.7,286047000.6,P
1622785035.6,286047002.7,P
1622785055.4,286046999.7,N
1622785075.3,286047000.3,N
1622785095.1,286047000.4,N
1622785096.0,286047000.4,N
1622785115.8,286047000.0,N
1622785135.7,286047000.9,N
1622785155.5,286047000.8,N
1622785175.3,286047000.9,N
1622785195.2,286047001.0,N
1622785215.0,286046999.0,N
1622785215.9,286046999.0,N
1622785235.8,286046998.6,N
1622785255.6,286046999.3,N
1622785275.4,286046998.5,N
1622785295.3,286047001.2,N
1622785315.1,286047001.2,N
1622785335.8,286046998.5,N
1622785355.7,286046998.5,N
1622785375.5,286046996.5,Y
1622785395.4,286046999.4,P
1622785415.2,286046996.7,P
1622785435.0,286046996.5,N
1622785435.9,286046996.5,N
1622785455.8,286046999.0,N
1622785475.6,286046999.4,N
1622785495.4,286046999.3,N
1622785515.3,286046999.2,N
1622785535.1,286046994.9,Y
1622785555.9,286046999.2,P
1622785575.7,286046998.8,P
1622785595.5,286046999.3,N
1622785615.4,286046999.3,N
1622785635.2,286047001.2,Y
1622785655.1,286047000.7,P
1622785656.0,286047000.7,N
1622785675.8,286047001.0,N
1622785695.6,286046996.6,Y
1622785715.5,286046999.2,P
1622785735.3,286047001.0,N
1622785755.2,286047000.1,N
1622785775.9,286047000.4,N
1622785795.7,286047000.0,N
1622785815.6,286046999.2,N
1622785835.4,286046997.0,Y
1622785855.3,286046998.9,P
1622785875.1,286047000.8,N
1622785876.0,286047000.8,N
1622785895.8,286047002.0,N
1622785915.7,286047000.5,N
1622785935.5,286046999.8,N
1622785955.3,286047000.6,N
1622785975.2,286047000.8,N
1622785995.0,286046999.9,N
1622785995.9,286046999.9,N
1622786015.8,286047000.7,N
1622786035.6,286047002.3,Y
1622786055.4,286046998.8,P
1622786075.3,286046999.0,N
1622786095.1,286046996.9,P
1622786115.9,286046998.8,N
1622786135.7,286046999.2,N
1622786155.5,286046998.5,N
1622786175.4,286046997.8,N
1622786195.2,286046995.0,Y
1622786215.1,286046995.8,P
1622786216.0,286046995.8,N
1622786235.8,286046994.3,P
1622786255.6,286046994.4,Y
1622786275.5,286046997.5,P
1622786295.3,286046995.3,P
1622786315.1,286046994.9,P
1622786335.9,286046995.5,Y
1622786355.7,286047000.0,P
1622786375.6,286046999.8,N
1622786395.4,286047000.0,N
